Regional Weather Roundup
Issued by NWS

Home | Current Version | Previous Version | Graphics & Text | Print | Product List | Glossary On
Versions: 1 2 3 4 5 6 7 8 9 10 11 12 13 14 15 16 17 18 19 20 21 22 23 24 25 26 27 28 29 30 31 32 33 34 35 36 37 38 39 40 41 42 43 44 45 46 47 48 49 50
000
ASUS43 KFSD 210210
RWRSD

WEATHER ROUNDUP FOR SOUTH DAKOTA
NATIONAL WEATHER SERVICE SIOUX FALLS SD
800 PM CST MON NOV 20 2017

NOTE: "FAIR" INDICATES FEW OR NO CLOUDS BELOW 12,000 FEET WITH NO
SIGNIFICANT WEATHER AND/OR OBSTRUCTIONS TO VISIBILITY.


SDZ001>005-009-010-012>017-210300-
NORTHWEST AND NORTH CENTRAL SOUTH DAKOTA

CITY           SKY/WX    TMP DP  RH WIND       PRES   REMARKS
BUFFALO          N/A     37  25  61 N17G25    29.69R
FAITH            N/A     40  27  59 N14       29.71R
MOBRIDGE       CLOUDY    42  28  57 N14       29.65R
$$

SDZ012>016-024>037-041>051-057-063-072>074-210300-
SOUTHWEST AND SOUTH CENTRAL SOUTH DAKOTA

CITY           SKY/WX    TMP DP  RH WIND       PRES   REMARKS
RAPID CTY ARPT PTCLDY    39  21  48 W3        29.73S
PIERRE         CLEAR     46  27  47 NW12      29.67R
CUSTER         CLOUDY    39  19  44 W7        29.75S
ELLSWORTH AFB  PTCLDY    43  22  43 CALM      29.72R
PHILIP         CLEAR     39  24  55 W5        29.70R
PINE RIDGE     CLEAR     40  21  46 W8        29.74R
SPEARFISH      FAIR      39  23  52 SW3       29.74R
WINNER         FAIR      45  22  40 W7        29.70R
$$

SDZ004>011-016>023-039-040-210300-
NORTHEAST SOUTH DAKOTA

CITY           SKY/WX    TMP DP  RH WIND       PRES   REMARKS
ABERDEEN       CLEAR     40  28  62 NW12      29.64R
WATERTOWN      CLEAR     42  25  50 NW13      29.58R
BROOKINGS      PTCLDY    36  23  60 MISG        N/A
SISSETON         N/A     41  28  60 NW24G39   29.56R
$$

SDZ017-020-022-023-036>040-048>070-210300-
SOUTHEAST SOUTH DAKOTA

CITY           SKY/WX    TMP DP  RH WIND       PRES   REMARKS
SIOUX FALLS    PTCLDY    41  26  55 W7        29.60R
HURON          CLEAR     35  20  54 NW10      29.62R WCI  27
CHAMBERLAIN    CLEAR     49  25  37 N6        29.66S
MITCHELL       PTCLDY    42  24  49 NW9       29.64R
YANKTON        CLOUDY    41  27  57 SW6       29.63R
$$

ABBREVIATIONS USED IN REMARKS
   TC - TEMPERATURE IN CELSIUS
  WCI - WIND CHILL INDEX
   HX - HEAT INDEX
  VSB - VISIBILITY





USA.gov is the U.S. government's official web portal to all federal, state and local government web resources and services.